Погода в Гуково

Россия / Ростовская область     48°03′30″N   39°56′24″E
темп.,
°C
ветер,
м/с
пор.,
м/с
влажн.,
%
обл.,
%
осадки,
мм/ч
давл.,
гПа
погр.,
м
17 апреля, сб
сб1700:00+10ююв359091 0.3 1019334
03:00+9юз3695100 0.9 1019424
06:00+8з479256 1.6 1019422
09:00+11з46635 1.6 10201046
12:00+13зюз56455 0.0 10201652
15:00+14зюз56428 0.0 10201757
18:00+13з565221 0.0 10201250
21:00+9зюз376910 0.0 1022155
18 апреля, вс
вс1800:00+7зсз24765 0.0 102268
03:00+6с227641 0.0 102111
06:00+6в237886 0.0 102145
09:00+10вюв4560100 0.0 1021602
12:00+13юв4448100 0.0 10201734
15:00+15юв444296 0.0 10191827
18:00+14вюв3350100 0.0 10181291
21:00+10вюв2483100 0.3 1019220
19 апреля, пн
пн1900:00+9вюв3687100 0.2 1018345
03:00+9в2588100 0.3 1017399
06:00+9в2389100 0.1 1016281
09:00+9всв2294100 2.3 1015241
12:00+11всв2291100 1.2 1014364
15:00+11всв1188100 1.4 1014426
18:00+12ссв2285100 0.1 1013122
21:00+10всв2492100 0.1 1012145
20 апреля, вт
вт2000:00+10в3596100 0.0 1011236
03:00+10вюв4899100 1.2 1009300
06:00+11в51198100 4.2 1005385
09:00+12вюв81692100 10.4 1003549
12:00+16ююв111775100 0.1 10011160
15:00+14ююз9158377 0.8 10031143
18:00+13ююз917711 0.0 10041382
21:00+10ююз11177986 0.1 10061296
21 апреля, ср
ср2100:00+8ююз121982100 0.1 10071223
03:00+8юз101591100 0.3 10101177
06:00+8юз7138648 0.1 1013687
09:00+10юз797595 0.1 1016851
12:00+13юз796430 0.2 10171423
15:00+14юз685695 0.3 10171412
18:00+13юз56629 0.1 1019917
21:00+9юз498017 0.1 1021202